TimeCST,TemperatureF,Dew PointF,Humidity,Sea Level PressureIn,VisibilityMPH,Wind Direction,Wind SpeedMPH,Gust SpeedMPH,PrecipitationIn,Events,Conditions,WindDirDegrees,DateUTC
12:53 AM,54.0,44.1,69,30.27,10.0,South,6.9,-,N/A,,Clear,180,2012-12-02 06:53:00
1:53 AM,55.0,45.0,69,30.27,10.0,South,8.1,17.3,N/A,,Clear,180,2012-12-02 07:53:00
2:53 AM,54.0,46.0,75,30.27,10.0,South,11.5,17.3,N/A,,Clear,180,2012-12-02 08:53:00
3:53 AM,54.0,46.0,75,30.27,10.0,South,6.9,-,N/A,,Clear,180,2012-12-02 09:53:00
4:53 AM,53.1,46.9,80,30.28,10.0,South,5.8,-,N/A,,Mostly Cloudy,170,2012-12-02 10:53:00
5:53 AM,53.1,46.0,77,30.28,10.0,South,4.6,-,N/A,,Clear,170,2012-12-02 11:53:00
6:53 AM,53.1,45.0,74,30.29,10.0,South,6.9,-,N/A,,Clear,180,2012-12-02 12:53:00
7:53 AM,54.0,45.0,72,30.30,10.0,South,5.8,-,N/A,,Scattered Clouds,190,2012-12-02 13:53:00
8:53 AM,57.9,44.1,60,30.30,10.0,SSW,11.5,20.7,N/A,,Clear,200,2012-12-02 14:53:00
9:53 AM,61.0,45.0,56,30.29,10.0,SSW,12.7,20.7,N/A,,Clear,200,2012-12-02 15:53:00
10:53 AM,64.0,46.0,52,30.27,10.0,SSW,9.2,23.0,N/A,,Clear,210,2012-12-02 16:53:00
11:53 AM,64.0,46.9,54,30.24,10.0,SW,10.4,-,N/A,,Mostly Cloudy,220,2012-12-02 17:53:00
12:53 PM,63.0,46.9,56,30.23,10.0,Variable,6.9,-,N/A,,Mostly Cloudy,0,2012-12-02 18:53:00
1:53 PM,64.0,46.9,54,30.21,10.0,Variable,5.8,16.1,N/A,,Overcast,0,2012-12-02 19:53:00
2:53 PM,64.0,46.9,54,30.21,10.0,SSW,6.9,-,N/A,,Overcast,200,2012-12-02 20:53:00
3:53 PM,63.0,48.0,58,30.21,10.0,Variable,4.6,-,N/A,,Overcast,0,2012-12-02 21:53:00
4:53 PM,63.0,48.0,58,30.22,10.0,South,6.9,-,N/A,,Overcast,190,2012-12-02 22:53:00
5:53 PM,62.1,46.9,58,30.23,10.0,Variable,4.6,-,N/A,,Overcast,0,2012-12-02 23:53:00
6:53 PM,62.1,48.0,60,30.23,10.0,South,8.1,-,N/A,,Overcast,180,2012-12-03 00:53:00
7:53 PM,61.0,48.0,62,30.24,10.0,Calm,Calm,-,N/A,,Overcast,0,2012-12-03 01:53:00
8:53 PM,61.0,48.0,62,30.24,10.0,SSW,6.9,-,N/A,,Overcast,200,2012-12-03 02:53:00
9:53 PM,60.1,48.0,64,30.24,10.0,SSW,6.9,-,N/A,,Overcast,200,2012-12-03 03:53:00
10:53 PM,60.1,48.0,64,30.25,10.0,SW,5.8,-,N/A,,Mostly Cloudy,220,2012-12-03 04:53:00
11:53 PM,60.1,48.0,64,30.24,10.0,SW,5.8,-,N/A,,Overcast,230,2012-12-03 05:53:00